This demonstration page uses our WeatherBlox Daily Observations layout. Learn more.

Left ArrowRight Arrow

39.92423, -83.80882

Hourly Observations for September 20, 2021

Temp ( °F °C ) Dew Point ( °F °C ) Humidity (%) Winds ( mph kmh ) Pressure ( in mb ) Visibility ( mi km ) Precip ( " mm )
12:56 am 00:56 Clear 69 20.6 68 20 96 96 ESE 5 7 30.09 1019 10 16 N/A
1:56 am 01:56 Partly Cloudy 72 22.2 67 19.4 84 84 SSE 9 15 30.10 1019 10 16 N/A
2:56 am 02:56 Cloudy 72 22.2 72 22.2 100 100 SSE 9 15 30.08 1019 10 16 N/A
3:56 am 03:56 Mostly Cloudy 70 21 N/A N/A SSE 8 13 30.07 1018 10 16 0.00 0.00
4:56 am 04:56 Mostly Cloudy with Light Rain 70 21 N/A N/A SSE 6 9 30.06 1018 10 16 0.00 0.00
5:56 am 05:56 Cloudy 70 21 N/A N/A SE 7 11 30.06 1018 10 16 0.00 0.00
6:56 am 06:56 Partly Cloudy 70 21.1 70 21.1 100 100 SE 9 15 30.07 1018 10 16 N/A
7:56 am 07:56 Mostly Sunny 70 21.1 70 21.1 100 100 SSE 8 13 30.09 1019 10 16 N/A
8:56 am 08:56 Cloudy with Light Rain 70 21.1 70 21.1 100 100 S 7 11 30.09 1019 10 16 0.00 0.00
9:56 am 09:56 Cloudy with Light Rain 70 21 N/A N/A SE 7 11 30.09 1019 10 16 0.01 0.25
10:56 am 10:56 Sunny 73 22.8 73 22.8 100 100 SSE 7 11 30.09 1019 10 16 0.00 0.00
11:56 am 11:56 Sunny 75 23.9 72 22.2 90 90 SSE 12 19 30.10 1019 10 16 N/A
12:56 pm 12:56 Sunny 77 25 71 21.7 82 82 S 10 17 30.10 1019 10 16 N/A
1:56 pm 13:56 Partly Cloudy 80 26.7 71 21.7 74 74 S 9 15 30.09 1019 10 16 N/A
2:16 pm 14:16 Mostly Cloudy 79 26 70 21 74 74 SSW 9 15 30.06 1018 10 16 N/A
2:35 pm 14:35 Partly Cloudy 79 26 70 21 74 74 SSW 9 15 30.05 1018 10 16 N/A
2:56 pm 14:56 Mostly Cloudy 78 25.6 70 21.1 76 76 S 8 13 30.08 1019 10 16 N/A
3:11 pm 15:11 Cloudy with Light Rain 77 25 70 21 79 79 S 6 9 30.05 1018 10 16 0.00 0.00
3:30 pm 15:30 Cloudy with Light Rain 73 23 73 23 100 100 S 5 7 30.06 1018 10 16 0.01 0.25
3:56 pm 15:56 Cloudy with Light Rain 74 23.3 73 22.8 97 97 S 7 11 30.09 1019 10 16 0.01 0.25
4:56 pm 16:56 Cloudy with Light Rain 72 22 N/A N/A S 6 9 30.09 1019 10 16 0.00 0.00
5:56 pm 17:56 Cloudy with Light Rain 72 22 N/A N/A VRB 3 6 30.09 1019 10 16 0.01 0.25
6:56 pm 18:56 Mostly Cloudy with Light Rain 72 22 N/A N/A S 6 9 30.09 1019 10 16 0.00 0.00
7:56 pm 19:56 Mostly Clear with Light Rain 70 21 N/A N/A S 9 15 30.08 1019 10 16 0.01 0.25
8:56 pm 20:56 Partly Cloudy 70 21 N/A N/A S 7 11 30.08 1019 10 16 0.00 0.00
9:56 pm 21:56 Mostly Clear 68 20 N/A N/A S 6 9 30.07 1018 10 16 N/A
10:04 pm 22:04 Partly Cloudy 68 20 N/A N/A S 5 7 30.05 1018 10 16 N/A
10:56 pm 22:56 Partly Cloudy 68 20 N/A N/A SSE 6 9 30.06 1018 10 16 N/A
11:56 pm 23:56 Mostly Cloudy 68 20 N/A N/A SSE 5 7 30.06 1018 10 16 N/A

Powered by AerisWeather